HB9DDE-10 Weather Reports


time (UTC)temp
F
wind
direction
speed
knots
gust
knots
rain 1hr
in
rain 24hr
in
rain mn
in
humidity
%
barometer
mb
20260507004353 44 147 0.0 0.0 0.04 0.94 0.01 97 1012.9
20260507003844 44 147 0.0 0.0 0.04 0.94 0.01 97 1012.8
20260507003334 44 147 0.0 0.0 0.04 0.94 0.01 97 1012.8
20260507002844 44 147 0.0 0.0 0.04 0.94 0.01 97 1012.7
20260507002433 44 147 0.0 0.0 0.04 0.94 0.01 97 1012.8
20260507001840 44 147 0.0 0.0 0.04 0.94 0.01 97 1012.7
20260507001350 44 147 0.0 0.0 0.00 0.91 0.00 97 1012.8
20260507000845 44 147 0.0 0.0 0.00 0.91 0.00 96 1012.8
20260507000336 44 147 0.0 0.0 0.00 0.91 0.00 96 1012.9
20260506235845 44 147 0.0 0.0 0.00 0.91 0.00 96 1012.9
20260506235354 44 147 0.0 0.0 0.00 0.91 0.00 97 1012.8
20260506234844 44 147 0.0 0.0 0.00 0.91 0.00 97 1012.8
20260506234353 44 147 0.0 0.0 0.00 0.91 0.00 97 1012.9
20260506233842 44 147 0.0 0.9 0.00 0.91 0.00 97 1012.8
20260506233352 44 147 0.0 0.9 0.00 0.91 0.00 97 1012.8
20260506232845 43 147 0.0 0.0 0.00 0.91 0.00 96 1012.8
20260506232335 43 147 0.0 0.0 0.00 0.91 0.00 96 1012.8
20260506231848 43 147 0.0 0.0 0.00 0.91 0.00 96 1012.8
20260506231336 43 147 0.0 0.0 0.00 0.91 0.00 96 1012.7
20260506230846 43 147 0.0 0.0 0.00 0.91 0.00 96 1012.7
20260506230355 43 147 0.0 0.0 0.00 0.91 0.00 96 1012.7
20260506225843 43 147 0.0 0.0 0.00 0.91 0.00 96 1012.7
20260506225352 44 147 0.0 0.0 0.00 0.91 0.00 96 1012.6
20260506224843 44 147 0.0 0.0 0.00 0.91 0.00 96 1012.6
20260506224336 44 147 0.0 0.0 0.00 0.91 0.00 96 1012.6
20260506223848 44 147 0.0 0.0 0.00 0.91 0.00 96 1012.6
20260506223336 44 147 0.0 0.0 0.00 0.91 0.00 96 1012.7
20260506222847 44 147 0.0 0.0 0.00 0.91 0.00 96 1012.6
20260506222336 44 147 0.0 0.0 0.00 0.91 0.00 96 1012.6
20260506221847 44 147 0.0 0.0 0.00 0.91 0.00 96 1012.6
20260506221336 44 147 0.0 0.0 0.00 0.91 0.00 96 1012.5
20260506220846 44 147 0.0 0.0 0.00 0.91 0.00 95 1012.5
20260506220341 44 147 0.0 0.0 0.00 0.91 0.18 96 1012.6
20260506215851 44 147 0.0 0.0 0.00 0.91 0.18 96 1012.6
20260506215341 44 147 0.0 0.0 0.00 0.91 0.18 96 1012.6
20260506214850 44 147 0.0 0.0 0.00 0.91 0.18 95 1012.6
20260506214341 44 147 0.0 0.0 0.00 0.91 0.18 95 1012.4
20260506213850 44 147 0.0 0.0 0.00 0.91 0.18 95 1012.5
20260506213439 44 147 0.0 0.0 0.00 0.91 0.18 95 1012.5
20260506212842 44 147 0.0 0.9 0.00 0.91 0.18 95 1012.5
20260506212352 45 147 0.0 0.9 0.00 0.91 0.18 95 1012.6
20260506211843 45 147 0.0 0.0 0.00 0.91 0.18 95 1012.4
20260506211336 45 147 0.0 0.0 0.00 0.91 0.18 95 1012.3
20260506210846 45 147 0.0 0.0 0.00 0.91 0.18 95 1012.3
20260506210336 45 147 0.0 0.0 0.00 0.91 0.18 95 1012.4
20260506205846 45 147 0.0 0.0 0.00 0.91 0.18 95 1012.3
20260506205337 45 147 0.0 0.0 0.00 0.91 0.18 95 1012.3
20260506204846 45 147 0.0 0.0 0.00 0.91 0.18 95 1012.3
20260506204353 45 147 0.0 0.0 0.00 0.91 0.18 95 1012.3
20260506203842 45 147 0.0 0.0 0.00 0.91 0.18 94 1012.2
20260506202846 45 147 0.0 0.0 0.00 0.91 0.18 94 1012.1
20260506202335 45 147 0.0 0.0 0.00 0.91 0.18 94 1012.0
20260506201844 46 147 0.0 0.0 0.00 0.91 0.18 94 1012.0
20260506201353 46 147 0.0 0.0 0.00 0.91 0.18 94 1011.8
20260506200841 46 147 0.0 0.0 0.00 0.91 0.18 94 1011.7
20260506200349 46 147 0.0 0.0 0.00 0.91 0.18 94 1011.7
20260506195839 46 147 0.0 0.0 0.00 0.91 0.18 93 1011.6
20260506195350 46 147 0.0 0.0 0.00 0.91 0.18 93 1011.6
20260506194840 47 147 0.0 0.0 0.00 0.91 0.18 93 1011.4
20260506194335 47 147 0.0 0.0 0.00 0.91 0.18 92 1011.4
20260506193844 47 147 0.0 0.0 0.00 0.91 0.18 92 1011.3
20260506193334 47 147 0.0 0.0 0.00 0.91 0.18 92 1011.3
20260506192846 48 147 0.0 0.0 0.00 0.91 0.18 92 1011.3
20260506192334 48 147 0.0 1.7 0.00 0.91 0.18 91 1011.2
20260506191844 48 147 0.0 1.7 0.00 0.91 0.18 91 1011.2
20260506191351 48 147 0.9 1.7 0.00 0.91 0.18 90 1011.2
20260506190839 49 147 0.9 3.5 0.00 0.91 0.18 89 1011.1
20260506190349 49 147 1.7 3.5 0.00 0.91 0.18 89 1011.0
20260506185842 50 147 1.7 3.5 0.00 0.91 0.18 89 1011.0
20260506185351 49 147 0.9 4.3 0.00 0.91 0.18 89 1011.0
20260506184842 49 153 1.7 3.5 0.00 0.91 0.18 89 1011.0
20260506184352 50 148 1.7 2.6 0.00 0.91 0.18 89 1011.0
20260506183841 50 141 1.7 2.6 0.00 0.91 0.18 87 1010.9
20260506183352 51 141 1.7 2.6 0.00 0.91 0.18 86 1010.8
20260506182840 51 146 0.9 3.5 0.00 0.91 0.18 85 1010.7
20260506182351 51 131 0.9 4.3 0.00 0.91 0.18 85 1010.6
20260506181844 51 163 1.7 4.3 0.00 0.91 0.18 85 1010.6
20260506181334 52 81 0.9 4.3 0.00 0.91 0.18 84 1010.7
20260506180845 52 160 1.7 3.5 0.00 0.91 0.18 84 1010.6
20260506180354 52 142 0.9 3.5 0.00 0.91 0.18 83 1010.5
20260506175843 53 141 1.7 4.3 0.00 0.91 0.18 82 1010.5
20260506175353 53 90 0.9 4.3 0.00 0.91 0.18 82 1010.5
20260506174841 53 152 0.9 3.5 0.00 0.91 0.18 81 1010.5
20260506174352 54 86 0.9 2.6 0.00 0.91 0.18 82 1010.5
20260506173842 53 142 0.0 3.5 0.00 0.91 0.18 83 1010.4
20260506173335 53 145 0.9 4.3 0.00 0.91 0.18 84 1010.3
20260506172844 53 153 0.0 4.3 0.00 0.91 0.18 84 1010.3
20260506172335 52 167 0.9 3.5 0.00 0.91 0.18 84 1010.3
20260506171845 52 169 0.9 1.7 0.00 0.91 0.18 85 1010.2
20260506171353 52 131 0.0 2.6 0.00 0.91 0.18 85 1010.2
20260506170842 52 131 0.9 2.6 0.00 0.91 0.18 85 1010.2
20260506170352 52 133 0.0 3.5 0.00 0.91 0.18 85 1010.1
20260506165842 52 155 0.9 5.2 0.00 0.91 0.18 85 1010.1
20260506165335 52 177 0.9 5.2 0.00 0.91 0.18 85 1010.1
20260506164847 52 171 0.9 2.6 0.00 0.91 0.18 85 1010.1
20260506164336 52 144 0.0 2.6 0.00 0.91 0.18 85 1010.1
20260506163846 52 143 0.0 3.5 0.00 0.91 0.18 85 1010.1
20260506163335 52 143 0.9 4.3 0.00 0.91 0.18 84 1010.3
20260506162847 52 179 1.7 5.2 0.00 0.91 0.18 83 1010.3
20260506162336 52 148 1.7 5.2 0.00 0.91 0.18 83 1010.2
20260506161846 52 146 0.9 3.5 0.00 0.91 0.18 84 1010.1
20260506161336 52 145 0.9 4.3 0.00 0.91 0.18 85 1010.2
20260506160850 52 186 1.7 4.3 0.00 0.91 0.18 84 1010.1
20260506160340 52 225 1.7 4.3 0.00 0.91 0.18 84 1010.1
20260506155850 52 186 0.9 2.6 0.00 0.91 0.18 84 1010.1
20260506155340 52 217 0.0 3.5 0.00 0.91 0.18 84 1010.1
20260506154851 52 150 0.9 3.5 0.00 0.91 0.18 84 1010.1
20260506154341 52 188 0.9 4.3 0.00 0.91 0.18 84 1010.1
20260506153852 52 204 1.7 4.3 0.00 0.91 0.18 85 1010.2
20260506153341 52 134 0.9 3.5 0.00 0.91 0.18 85 1010.2
20260506152835 52 165 1.7 3.5 0.00 0.91 0.18 85 1010.2
20260506152345 52 117 0.9 3.5 0.00 0.91 0.18 85 1010.2
20260506151835 52 161 0.9 7.0 0.00 0.91 0.18 85 1010.2
20260506151346 52 150 2.6 7.0 0.00 0.91 0.18 86 1010.1
20260506150836 52 106 0.9 4.3 0.00 0.91 0.18 87 1010.2
20260506150346 52 150 0.9 4.3 0.00 0.91 0.18 87 1010.2
20260506145835 52 146 0.0 2.6 0.00 0.91 0.18 88 1010.1
20260506145345 52 260 0.0 3.5 0.00 0.91 0.18 88 1010.1
20260506144935 52 134 0.9 4.3 0.00 0.91 0.18 88 1010.1
20260506144340 52 172 0.9 4.3 0.00 0.91 0.18 87 1010.1
20260506143834 52 147 0.0 3.5 0.00 0.91 0.18 88 1010.0
20260506143344 52 132 0.9 5.2 0.00 0.91 0.18 87 1010.1
20260506142854 52 124 1.7 6.1 0.00 0.91 0.18 86 1010.0
20260506142343 52 104 1.7 6.1 0.00 0.91 0.18 87 1010.0
20260506141853 52 138 1.7 4.3 0.00 0.91 0.18 87 1010.0
20260506141342 52 132 0.9 6.1 0.00 0.91 0.18 87 1010.0
20260506140852 52 143 1.7 6.1 0.00 0.91 0.18 87 1010.0
20260506140342 52 117 2.6 6.1 0.00 0.91 0.18 87 1009.9
20260506135851 52 148 0.9 5.2 0.00 0.91 0.18 87 1009.9
20260506135347 52 156 0.9 4.3 0.00 0.91 0.18 88 1009.9
20260506134933 52 158 1.7 6.1 0.00 0.91 0.18 88 1009.9
20260506134341 51 228 2.6 6.1 0.00 0.91 0.18 88 1009.9
20260506133851 51 323 0.0 6.1 0.00 0.91 0.18 90 1009.9
20260506133341 51 87 0.9 5.2 0.00 0.91 0.18 90 1009.8
20260506132850 51 108 0.9 6.1 0.00 0.91 0.18 91 1009.9
20260506132338 51 153 1.7 5.2 0.00 0.91 0.18 91 1009.8
20260506131848 51 151 1.7 5.2 0.00 0.91 0.18 92 1009.8
20260506131338 51 130 0.9 5.2 0.08 0.91 0.18 92 1009.8
20260506130848 50 146 2.6 5.2 0.16 0.91 0.18 92 1009.8
20260506130342 50 177 0.9 5.2 0.24 0.91 0.18 93 1009.9
20260506125851 50 121 0.9 5.2 0.28 0.91 0.18 93 1009.8
20260506125341 50 126 0.0 5.2 0.39 0.91 0.18 93 1009.9
20260506124851 50 104 0.9 5.2 0.47 0.91 0.18 93 1009.9
20260506124340 50 147 1.7 5.2 0.51 0.91 0.18 93 1009.8
20260506123851 50 146 0.0 5.2 0.55 0.91 0.18 93 1009.8
20260506123341 50 153 1.7 5.2 0.59 0.91 0.18 93 1009.7
20260506122851 50 144 0.9 4.3 0.63 0.91 0.18 93 1009.7
20260506122341 50 228 0.9 4.3 0.67 0.91 0.18 93 1009.6
20260506121835 50 229 1.7 7.0 0.71 0.91 0.18 93 1009.6
20260506121346 50 190 2.6 7.8 0.67 0.83 0.17 93 1009.6
20260506120854 50 160 1.7 5.2 0.63 0.75 0.15 93 1009.5
20260506120344 50 123 0.9 7.0 0.55 0.67 0.13 93 1009.5
20260506115853 50 171 1.7 7.0 0.51 0.63 0.13 93 1009.4
20260506115341 50 129 1.7 8.7 0.39 0.51 0.10 92 1009.5
20260506114851 50 272 2.6 8.7 0.31 0.43 0.09 91 1009.3
20260506114340 51 155 3.5 7.8 0.28 0.39 0.08 91 1009.3
20260506113834 51 199 2.6 9.6 0.24 0.35 0.07 91 1009.2
20260506113347 51 214 2.6 9.6 0.20 0.31 0.06 91 1009.1
20260506112835 52 296 3.5 9.6 0.16 0.28 0.06 92 1009.0
20260506112345 52 32 2.6 7.8 0.12 0.24 0.05 91 1008.8
20260506111834 52 210 3.5 9.6 0.08 0.20 0.04 90 1008.8
20260506111345 53 153 4.3 9.6 0.04 0.16 0.03 90 1008.8
20260506110853 53 129 2.6 7.0 0.00 0.12 0.02 89 1008.6
20260506110342 54 169 2.6 7.0 0.00 0.24 0.02 88 1008.5
20260506105851 54 136 1.7 7.0 0.00 0.24 0.02 88 1008.5
20260506105344 54 155 1.7 6.1 0.00 0.24 0.02 89 1008.5
20260506104835 55 217 0.9 4.3 0.00 0.24 0.02 88 1008.4
20260506104345 55 149 0.9 3.5 0.00 0.24 0.02 88 1008.4
20260506103836 55 60 0.9 3.5 0.00 0.24 0.02 87 1008.4
20260506103345 55 290 0.9 3.5 0.00 0.24 0.02 87 1008.4
20260506102836 55 115 0.9 3.5 0.00 0.24 0.02 87 1008.3
20260506102345 55 295 0.9 3.5 0.04 0.24 0.02 87 1008.3
20260506101851 55 303 0.9 2.6 0.04 0.24 0.02 88 1008.3
20260506101342 55 300 0.9 2.6 0.08 0.24 0.02 88 1008.2
20260506100836 55 167 0.0 2.6 0.08 0.24 0.02 89 1008.2
20260506100346 55 195 0.0 2.6 0.08 0.24 0.02 90 1008.2
20260506095835 54 317 0.0 2.6 0.12 0.24 0.02 90 1008.1
20260506095345 54 298 0.9 2.6 0.12 0.24 0.02 91 1008.0
20260506094836 54 308 0.9 2.6 0.12 0.24 0.02 90 1008.0
20260506094346 54 296 0.0 2.6 0.12 0.24 0.02 90 1008.1
20260506093836 54 295 0.0 1.7 0.12 0.24 0.02 91 1008.2
20260506093346 54 142 0.0 0.9 0.12 0.24 0.02 91 1008.2
20260506091349 53 137 0.0 0.9 0.04 0.16 0.01 92 1008.0
20260506090837 53 269 0.0 0.9 0.04 0.16 0.01 91 1008.0
20260506090349 53 269 0.0 0.9 0.04 0.16 0.01 91 1007.8
20260506085350 53 269 0.0 0.9 0.00 0.12 0.00 90 1007.8
20260506084840 53 269 0.0 0.9 0.00 0.12 0.00 90 1007.9
20260506084353 53 269 0.0 0.9 0.00 0.12 0.00 89 1007.8
20260506083843 53 269 0.0 0.9 0.00 0.12 0.00 89 1007.8
20260506083353 53 269 0.0 0.9 0.00 0.12 0.00 88 1007.8
20260506082841 54 153 0.0 0.0 0.00 0.12 0.00 88 1007.8
20260506082351 54 153 0.0 0.0 0.00 0.12 0.00 88 1007.8
20260506081841 54 153 0.0 0.0 0.00 0.12 0.00 87 1007.8
20260506081350 54 153 0.0 0.0 0.00 0.12 0.00 87 1007.7
20260506080840 54 153 0.0 0.0 0.00 0.12 0.00 88 1007.7
20260506080350 54 153 0.0 0.9 0.00 0.16 0.00 88 1007.7
20260506073352 53 153 0.0 0.0 0.00 0.16 0.00 89 1007.6
20260506072840 53 153 0.0 0.0 0.00 0.16 0.00 90 1007.6
20260506072351 53 153 0.0 0.0 0.00 0.16 0.00 90 1007.7
20260506071845 53 153 0.0 0.0 0.00 0.16 0.00 91 1007.7
20260506071335 52 153 0.0 0.0 0.00 0.16 0.00 92 1007.7
20260506070846 52 153 0.0 0.0 0.00 0.16 0.00 92 1007.8
20260506070335 52 153 0.0 0.0 0.00 0.20 0.00 93 1007.8
20260506062337 50 153 0.0 0.0 0.00 0.20 0.00 95 1007.7
20260506061848 50 152 0.0 0.0 0.00 0.20 0.00 95 1007.6
20260506061337 50 153 0.0 0.0 0.00 0.20 0.00 96 1007.6
20260506060847 49 153 0.0 0.0 0.00 0.20 0.00 96 1007.6
20260506060336 49 153 0.0 0.0 0.00 0.20 0.00 96 1007.7
20260506051349 48 153 0.0 0.0 0.00 0.20 0.00 96 1007.9
20260506050843 48 153 0.0 0.0 0.00 0.20 0.00 95 1007.9
20260506044851 47 153 0.0 0.0 0.00 0.20 0.00 95 1007.8
20260506044340 47 153 0.0 0.0 0.00 0.20 0.00 95 1007.8
20260506043850 47 153 0.0 0.0 0.00 0.20 0.00 95 1007.8
20260506043342 47 153 0.0 0.0 0.00 0.20 0.00 95 1007.8
20260506042835 48 153 0.0 0.9 0.00 0.20 0.00 95 1007.8
20260506042346 48 153 0.0 0.9 0.00 0.20 0.00 95 1007.7
20260506041836 48 153 0.0 0.9 0.00 0.20 0.00 94 1007.8
20260506041348 48 153 0.0 2.6 0.00 0.20 0.00 94 1007.8
20260506040837 48 149 1.7 2.6 0.00 0.20 0.00 93 1007.7
20260506040348 48 146 0.0 0.9 0.00 0.20 0.00 93 1007.7
20260506035838 49 146 0.0 0.0 0.00 0.20 0.00 93 1007.8
20260506035347 49 146 0.0 0.0 0.00 0.20 0.00 93 1007.8
20260506034840 49 146 0.0 0.9 0.00 0.20 0.00 93 1007.9
20260506034351 49 146 0.0 0.9 0.00 0.20 0.00 93 1008.0
20260506033842 49 146 0.0 0.9 0.00 0.20 0.00 93 1008.1
20260506033351 49 146 0.0 0.9 0.00 0.20 0.00 93 1008.1
20260506032840 49 146 0.0 0.9 0.00 0.20 0.00 94 1008.2
20260506032350 49 100 0.0 0.9 0.00 0.20 0.00 94 1008.2
20260506031840 49 167 0.0 0.9 0.00 0.20 0.00 94 1008.2
20260506031351 49 110 0.0 0.9 0.00 0.20 0.00 94 1008.3
20260506030840 49 110 0.0 0.9 0.00 0.20 0.00 94 1008.3
20260506030354 49 155 0.0 0.0 0.00 0.20 0.00 94 1008.3
20260506025844 49 107 0.0 0.9 0.00 0.20 0.00 94 1008.4
20260506025353 49 107 0.0 0.9 0.00 0.20 0.00 94 1008.5
20260506024843 49 124 0.0 0.9 0.00 0.20 0.00 94 1008.6
20260506024352 49 144 0.0 0.9 0.00 0.20 0.00 94 1008.6
20260506023840 49 144 0.0 0.0 0.00 0.20 0.00 94 1008.8
20260506023350 49 144 0.0 0.9 0.00 0.20 0.00 94 1008.8
20260506022839 49 144 0.0 0.9 0.00 0.20 0.00 94 1008.8
20260506022349 49 144 0.0 0.9 0.00 0.20 0.00 94 1008.8
20260506021843 49 144 0.0 2.6 0.00 0.20 0.00 94 1008.9
20260506021353 49 144 0.9 2.6 0.00 0.20 0.00 94 1008.8
20260506020843 49 144 0.0 0.9 0.00 0.20 0.00 94 1008.8
20260506020353 49 144 0.0 0.0 0.00 0.20 0.00 93 1008.8
20260506015843 49 144 0.0 0.0 0.00 0.20 0.00 93 1008.9
20260506015352 49 144 0.0 0.0 0.00 0.20 0.00 92 1008.9
20260506014840 50 144 0.0 0.0 0.00 0.20 0.00 92 1009.0
20260506014351 50 144 0.0 0.0 0.00 0.20 0.00 92 1009.1
20260506013846 50 144 0.0 0.0 0.00 0.20 0.00 92 1009.2
20260506013335 50 144 0.0 0.0 0.00 0.20 0.00 92 1009.3
20260506012847 50 144 0.0 0.9 0.00 0.20 0.00 92 1009.3
20260506012335 50 144 0.0 3.5 0.00 0.20 0.00 92 1009.5
20260506011848 50 144 0.0 3.5 0.00 0.20 0.00 93 1009.6
20260506011338 50 152 0.9 3.5 0.00 0.20 0.00 93 1009.7
20260506010848 50 153 1.7 3.5 0.00 0.20 0.00 93 1009.7
20260506010337 50 144 0.9 3.5 0.00 0.20 0.00 93 1009.7
20260506005845 50 144 0.9 3.5 0.00 0.20 0.00 94 1009.8
20260506005339 50 149 0.9 1.7 0.00 0.20 0.00 94 1009.7
20260506004850 49 132 0.0 0.9 0.00 0.20 0.00 93 1009.7